Wind_Speed
20 20 20 19 21 21 21 21 19 18 16 14 13 12 11 10 9 8 8 8 9 9 9 8 9 9 8 8 8 8 9 9 9 9 10 10 11 12 12 12 13 13 13 12 12 12 12 11 11
20 21 20 20 22 22 22 21 19 18 17 16 14 13 12 11 10 9 8 8 9 9 8 8 9 9 8 8 9 9 9 9 9 10 11 11 11 12 12 12 12 12 12 12 12 11 11 11 10
21 21 22 22 23 22 22 21 20 19 18 17 15 13 11 11 10 9 9 8 8 8 8 8 8 9 9 9 9 9 9 9 10 11 11 11 11 11 12 12 12 12 12 12 11 11 10 10 10
20 21 22 23 23 23 23 23 21 20 18 17 16 13 11 11 11 11 10 9 9 9 9 9 8 10 10 10 10 10 9 10 10 11 11 10 11 11 11 12 12 11 11 11 11 10 10 10 10
19 20 22 22 22 23 23 23 22 20 19 18 17 14 13 13 12 12 11 11 10 10 9 9 10 11 11 10 10 10 9 9 10 10 10 10 10 10 11 11 11 10 10 10 10 9 9 9 9
18 19 20 21 21 22 23 23 21 20 19 19 18 16 15 14 13 13 12 12 11 10 10 10 11 11 11 11 10 10 10 10 10 10 10 10 9 9 9 10 10 9 9 9 9 9 9 9 8
16 17 18 20 20 21 22 22 21 20 19 19 18 16 15 15 14 14 13 13 12 11 11 11 11 11 11 11 11 11 10 10 9 10 10 9 9 8 9 8 8 8 8 7 8 8 8 7 7
16 17 17 18 19 20 21 21 21 21 19 19 19 17 16 16 15 15 15 14 13 12 11 12 11 11 11 11 11 10 10 10 10 10 10 9 8 8 8 8 8 7 7 6 6 6 6 6 6
16 15 17 18 19 20 21 21 21 22 21 20 20 18 17 17 17 17 16 15 14 13 12 12 12 11 11 10 11 10 10 10 9 9 8 8 8 7 7 7 7 6 6 5 5 5 5 5 5
15 15 17 19 20 20 21 21 22 22 22 22 21 20 19 19 18 17 17 16 15 14 13 12 12 11 11 10 10 10 10 9 9 8 7 7 7 7 6 6 6 5 5 4 4 4 4 4 4
14 15 18 20 21 20 21 22 22 21 22 22 22 21 21 20 19 18 17 16 16 15 14 13 12 12 11 10 10 10 10 9 9 8 7 7 6 6 6 5 5 4 4 3 2 2 3 3 3
13 15 18 20 20 21 21 22 22 21 22 22 22 22 21 20 19 19 18 17 17 16 14 13 12 12 11 10 10 9 9 8 8 7 7 7 6 5 5 5 4 3 3 2 2 1 1 1 1
12 14 16 18 19 20 21 21 21 21 21 22 22 22 21 20 20 19 19 19 17 16 15 14 12 11 10 10 9 9 8 8 7 7 6 6 5 5 5 3 3 2 2 2 1 1 1 1 1
11 13 14 15 17 19 19 20 20 21 21 21 21 22 22 20 19 18 18 18 18 16 15 14 13 12 10 9 9 8 7 6 7 6 5 5 4 4 4 3 3 2 1 2 2 1 1 0 1
10 11 12 13 15 17 18 18 19 20 21 21 21 21 21 21 20 19 18 18 18 17 16 15 14 13 12 10 9 8 7 6 6 6 5 4 3 3 3 3 2 2 1 0 1 1 1 1 1
9 10 9 10 13 15 17 17 18 19 19 20 20 21 21 21 20 20 19 18 17 17 16 15 14 13 12 11 9 8 7 6 6 6 5 4 3 3 3 2 2 2 1 2 1 1 1 2 2
7 8 9 9 11 13 14 15 16 17 18 19 19 20 20 20 20 19 19 18 17 17 16 15 14 13 12 11 9 9 8 7 6 6 5 4 3 3 3 2 2 2 2 2 2 2 2 3 3
6 7 6 7 9 10 12 13 15 15 16 17 18 19 19 19 19 18 18 18 17 16 16 15 14 13 13 12 10 9 8 7 6 6 5 4 3 3 3 2 2 3 3 2 3 3 3 4 4
6 6 6 6 6 7 9 11 13 14 14 15 16 17 17 18 18 17 18 18 17 16 16 15 15 15 14 13 12 10 9 7 7 6 5 4 4 4 3 3 3 3 3 3 4 5 5 5 5
8 6 4 3 3 5 7 8 10 11 12 13 14 15 16 16 17 16 16 17 17 17 16 16 15 15 14 13 12 11 10 9 8 7 6 5 5 4 4 4 4 4 4 4 5 5 6 6 6
11 9 6 4 2 3 4 5 7 9 10 11 12 13 14 15 15 15 15 15 16 16 15 15 15 15 14 13 13 12 11 10 9 8 8 7 7 6 5 5 5 5 5 5 6 6 6 7 8
13 11 8 7 5 5 5 4 4 6 7 9 10 11 12 13 14 13 13 14 15 15 15 15 15 15 14 13 13 12 11 10 9 8 8 8 8 7 7 6 6 6 6 6 6 7 7 8 9
14 13 12 10 8 7 7 7 4 4 5 7 8 10 10 11 12 12 12 12 13 13 14 14 14 14 14 13 12 12 11 11 11 10 10 9 9 8 8 7 7 7 7 7 8 8 9 9 10
15 16 15 13 11 9 7 6 5 5 6 7 7 8 9 9 10 11 11 11 11 12 12 13 13 13 13 13 12 11 12 12 11 11 11 10 10 9 8 8 8 8 8 8 9 10 10 11 12
18 19 18 16 13 10 8 8 6 6 5 6 7 7 8 8 9 10 10 10 10 11 11 12 12 12 13 13 13 12 12 12 12 11 11 11 11 10 9 9 9 9 9 10 10 10 11 12 12
21 20 19 17 15 12 10 8 6 4 4 4 5 6 6 7 8 8 9 10 10 10 11 11 11 12 13 13 13 12 12 12 12 12 12 11 11 11 10 10 10 10 11 11 11 11 12 12 13
23 21 19 17 16 14 13 9 7 6 5 5 5 5 6 6 7 8 8 9 9 10 10 11 11 11 12 13 13 13 12 12 11 11 11 12 12 12 12 11 11 11 11 12 12 11 11 11 12
23 21 21 20 18 16 14 12 9 8 8 7 6 6 7 7 7 8 8 8 8 9 10 10 11 12 12 13 13 12 12 11 11 12 11 12 12 13 13 13 12 12 12 13 12 11 11 12 12
24 23 22 21 20 18 17 15 11 10 9 8 7 8 9 8 8 8 7 7 8 9 10 11 12 13 12 13 13 12 12 12 12 12 12 12 12 13 13 13 13 13 13 13 13 12 12 11 11
25 25 24 23 22 21 20 17 15 13 11 10 9 9 9 10 9 9 8 8 9 9 9 11 12 13 13 13 13 13 13 13 13 12 12 12 12 13 13 13 13 13 13 13 13 13 12 12 12
Wind_Direction
61 55 53 51 49 49 48 50 50 50 51 51 50 51 54 56 59 65 71 72 71 72 77 81 86 87 84 90 98 101 109 112 113 118 117 118 119 119 117 114 114 116 116 115 113 115 116 118 118
59 55 53 49 47 46 48 49 49 50 50 50 50 51 53 57 60 65 70 71 71 72 73 74 84 91 91 88 91 98 108 109 113 117 116 116 115 115 116 117 117 118 119 118 117 118 117 119 118
59 54 49 49 49 48 48 49 49 48 48 50 50 50 51 56 61 66 72 73 73 73 74 76 78 87 89 87 88 94 99 107 110 110 111 112 114 119 122 122 122 121 120 120 120 119 117 117 116
59 52 48 48 49 50 49 49 50 48 46 50 50 49 52 57 60 66 72 77 77 76 78 83 81 85 89 88 92 93 98 105 108 109 110 112 114 119 123 127 126 124 122 123 123 122 119 117 115
59 52 49 48 50 52 51 50 47 46 46 49 51 50 55 62 64 66 71 75 77 77 79 86 87 86 88 90 93 96 101 107 108 110 111 111 114 120 122 126 126 125 125 126 126 125 121 118 116
53 50 48 48 48 51 51 51 48 44 45 48 51 51 55 62 67 69 69 73 75 77 82 90 88 89 90 89 93 94 99 105 107 107 110 111 114 119 124 126 126 126 127 128 128 127 124 122 120
50 47 48 50 49 51 52 52 50 45 44 46 50 53 56 61 65 68 70 72 74 77 81 90 89 89 91 93 92 93 95 100 103 107 109 110 113 118 119 123 128 128 126 128 129 129 129 127 124
53 45 48 49 50 51 51 49 49 49 45 45 49 53 57 63 65 68 71 73 74 76 78 86 92 89 91 97 95 93 95 96 99 105 106 106 105 109 114 120 124 126 126 125 130 132 132 130 128
52 47 51 50 50 53 52 49 47 47 47 46 48 51 57 62 67 69 71 74 74 74 77 82 89 93 93 96 95 93 97 97 98 103 102 105 104 102 107 113 119 120 125 130 135 136 135 133 134
55 52 56 53 54 55 52 49 48 48 48 49 51 52 58 63 67 70 72 74 76 76 78 82 84 90 90 92 95 93 93 94 97 100 101 109 106 100 103 109 116 119 120 122 130 135 140 141 140
59 55 57 55 55 55 53 51 50 49 49 51 53 55 58 61 65 68 70 72 74 75 77 80 81 84 86 87 91 90 89 88 88 90 91 99 102 102 102 107 113 117 124 121 116 128 152 142 144
60 56 54 54 52 51 51 51 50 50 51 52 53 55 58 59 62 65 67 70 72 72 74 77 81 82 81 85 88 88 87 85 81 80 86 91 91 98 99 104 105 113 124 124 119 110 133 174 191
71 60 53 52 50 50 49 51 50 51 52 52 53 54 56 58 59 61 63 66 69 71 71 73 75 79 81 80 84 86 83 80 77 75 79 80 82 90 98 96 106 125 135 134 143 128 96 81 264
72 66 61 51 48 51 51 52 51 51 52 53 53 54 54 56 58 61 63 63 64 66 68 70 71 75 77 74 75 79 82 82 77 83 82 83 84 88 94 88 85 85 132 164 170 179 117 21 309
82 78 67 55 48 50 50 51 50 50 51 52 52 53 53 54 56 59 60 61 62 62 65 66 68 70 72 73 74 75 75 73 74 76 81 85 84 75 80 85 81 83 130 157 289 280 250 293 316
89 81 71 61 53 48 45 47 48 49 49 50 50 51 52 53 54 57 59 60 61 61 62 62 62 65 68 71 71 69 68 69 67 66 71 73 72 67 74 74 64 58 25 348 329 317 303 287 293
103 85 80 62 50 43 41 45 47 48 48 49 49 50 50 51 53 54 55 58 59 60 61 62 61 61 62 62 61 61 64 64 62 61 62 58 52 45 45 39 16 347 335 328 317 298 294 295 291
124 113 93 65 49 36 37 44 46 45 47 47 47 47 47 48 50 52 53 55 57 58 58 60 61 59 58 57 56 56 58 55 53 52 49 43 33 15 4 3 346 328 321 314 306 301 303 308 303
157 133 108 78 43 27 31 41 44 44 46 45 45 46 45 44 45 49 52 53 55 57 57 57 59 58 56 55 52 51 52 49 44 38 33 28 18 2 353 338 329 314 310 306 299 296 290 296 300
185 176 147 96 41 11 20 36 36 40 42 42 42 42 40 41 41 45 48 48 49 52 53 55 55 55 54 52 50 49 49 49 45 37 29 21 10 2 353 338 327 318 315 309 302 299 294 294 295
200 213 204 204 250 315 347 14 22 30 33 37 40 39 37 36 36 39 43 43 44 46 47 47 48 47 47 47 47 48 46 45 42 35 26 17 4 355 346 335 330 320 316 313 306 296 298 299 299
206 215 220 218 232 285 307 321 358 11 21 32 35 33 33 33 30 33 38 39 39 41 42 42 42 41 42 43 43 41 39 37 33 28 21 13 3 354 348 338 329 320 314 309 306 298 297 297 299
207 209 212 222 234 256 275 284 305 343 13 26 30 29 30 28 28 31 32 33 33 35 36 38 37 36 36 36 37 36 33 31 28 23 20 15 9 0 350 344 333 324 318 312 308 302 298 295 296
208 208 212 222 231 244 260 277 304 341 4 24 24 24 27 24 27 27 28 26 25 28 30 31 31 31 30 29 29 29 27 25 23 20 18 15 11 5 355 346 340 331 325 317 311 309 304 299 296
209 211 216 222 227 236 246 268 292 335 355 15 19 16 19 18 18 18 21 21 21 22 24 24 24 24 23 22 23 24 22 19 17 15 13 11 9 6 360 351 344 333 328 325 318 313 307 302 300
214 219 222 227 227 232 241 254 274 307 318 338 358 4 8 12 8 4 11 13 16 17 17 19 18 18 17 16 15 14 14 13 11 10 9 6 2 359 356 351 345 337 332 327 322 318 311 307 303
217 221 224 227 228 234 240 247 254 262 274 294 321 343 350 357 351 350 357 0 5 9 10 12 12 10 9 9 7 4 4 4 4 3 2 2 359 356 353 349 344 341 338 335 330 325 320 313 306
217 219 221 222 227 237 238 239 244 254 268 285 300 318 327 332 335 338 342 347 354 358 359 359 3 3 2 2 2 1 359 357 356 356 355 355 355 354 353 350 346 342 340 339 337 331 326 320 313
216 219 224 226 228 234 237 233 236 247 259 273 297 320 328 318 318 327 334 336 336 341 347 352 354 354 354 353 354 354 352 350 347 347 346 347 348 347 347 345 343 342 341 340 338 334 330 327 322
217 221 226 229 232 236 239 237 238 248 255 263 283 302 310 307 310 317 320 320 323 329 339 345 349 349 347 346 346 348 346 344 341 340 338 340 341 342 341 340 339 337 336 337 337 334 331 327 324
Height
5905 5904 5903 5903 5901 5899 5897 5896 5894 5893 5892 5890 5888 5888 5887 5887 5887 5888 5885 5883 5882 5882 5882 5881 5880 5880 5880 5880 5880 5880 5880 5880 5880 5880 5881 5881 5882 5883 5883 5883 5884 5885 5885 5886 5886 5887 5888 5888 5888
5908 5906 5907 5905 5902 5900 5899 5898 5897 5895 5894 5891 5890 5889 5888 5887 5887 5886 5885 5884 5884 5883 5883 5883 5882 5882 5881 5881 5881 5881 5881 5882 5882 5882 5883 5883 5884 5885 5885 5885 5886 5887 5887 5888 5888 5889 5889 5890 5890
5911 5910 5910 5907 5904 5903 5902 5900 5899 5897 5895 5894 5893 5891 5890 5889 5888 5887 5886 5886 5885 5885 5885 5884 5884 5884 5883 5883 5883 5883 5883 5884 5884 5884 5884 5885 5885 5886 5886 5887 5888 5888 5889 5889 5890 5891 5891 5891 5891
5914 5913 5911 5909 5907 5906 5904 5903 5901 5900 5898 5896 5895 5894 5892 5890 5889 5888 5887 5887 5887 5886 5886 5886 5885 5885 5885 5885 5885 5885 5885 5886 5886 5886 5886 5886 5887 5887 5888 5889 5889 5890 5890 5891 5892 5892 5892 5893 5893
5917 5915 5913 5911 5909 5908 5907 5905 5904 5903 5901 5898 5897 5895 5894 5892 5890 5889 5889 5888 5888 5888 5887 5887 5887 5887 5887 5887 5887 5888 5888 5888 5888 5888 5889 5889 5889 5889 5890 5890 5890 5891 5892 5892 5893 5893 5894 5894 5894
5920 5917 5916 5914 5912 5911 5910 5909 5907 5905 5903 5901 5899 5897 5895 5894 5892 5891 5890 5890 5889 5889 5889 5889 5889 5889 5889 5889 5889 5890 5890 5890 5890 5890 5890 5891 5891 5891 5891 5892 5892 5893 5893 5894 5894 5894 5895 5895 5895
5923 5920 5918 5917 5916 5914 5913 5912 5911 5908 5906 5903 5901 5899 5897 5896 5894 5893 5892 5892 5891 5891 5891 5890 5891 5891 5891 5891 5891 5892 5892 5892 5892 5892 5892 5893 5893 5893 5893 5893 5894 5894 5895 5895 5895 5895 5895 5895 5896
5924 5924 5921 5920 5919 5917 5916 5915 5913 5910 5908 5906 5903 5901 5900 5898 5896 5895 5895 5894 5893 5893 5893 5892 5893 5893 5893 5893 5893 5893 5894 5894 5894 5894 5894 5894 5894 5894 5894 5894 5895 5895 5896 5896 5896 5896 5896 5896 5896
5926 5927 5925 5924 5922 5920 5919 5917 5915 5913 5910 5908 5906 5904 5902 5900 5899 5898 5897 5897 5896 5895 5895 5895 5895 5895 5895 5895 5895 5895 5896 5896 5896 5896 5896 5896 5896 5896 5896 5895 5896 5897 5897 5897 5897 5897 5897 5897 5897
5929 5929 5927 5927 5925 5924 5922 5920 5918 5916 5914 5911 5909 5907 5905 5903 5902 5901 5900 5899 5898 5898 5897 5897 5897 5897 5897 5897 5897 5897 5897 5897 5897 5897 5897 5897 5897 5897 5897 5897 5897 5898 5898 5898 5898 5898 5898 5898 5898
5932 5931 5929 5928 5928 5927 5925 5923 5921 5919 5917 5915 5912 5910 5908 5906 5905 5904 5903 5902 5901 5900 5900 5899 5899 5899 5899 5899 5899 5899 5899 5899 5899 5899 5899 5899 5899 5899 5899 5899 5899 5898 5898 5898 5898 5899 5898 5898 5898
5934 5932 5931 5931 5930 5930 5928 5926 5924 5923 5921 5918 5915 5913 5911 5909 5908 5907 5906 5904 5904 5903 5902 5902 5901 5901 5901 5901 5901 5901 5901 5901 5901 5900 5900 5900 5900 5900 5900 5900 5899 5899 5899 5898 5899 5899 5899 5898 5898
5936 5935 5934 5933 5933 5932 5931 5930 5928 5926 5924 5921 5919 5917 5915 5913 5911 5910 5908 5907 5907 5906 5905 5904 5904 5903 5903 5903 5903 5902 5902 5902 5902 5902 5901 5901 5901 5901 5900 5900 5900 5900 5899 5898 5899 5898 5898 5898 5898
5938 5937 5936 5936 5935 5935 5935 5933 5932 5929 5927 5925 5923 5920 5918 5916 5915 5913 5911 5910 5909 5908 5907 5907 5906 5905 5905 5904 5904 5904 5904 5904 5903 5903 5903 5902 5902 5901 5901 5901 5901 5900 5899 5899 5899 5898 5898 5898 5898
5939 5939 5938 5938 5938 5937 5937 5936 5934 5932 5930 5928 5926 5924 5922 5920 5918 5916 5914 5913 5911 5910 5910 5909 5908 5907 5907 5906 5906 5906 5905 5905 5904 5904 5904 5903 5902 5902 5902 5901 5901 5900 5900 5899 5899 5898 5898 5898 5897
5940 5940 5940 5940 5940 5939 5941 5939 5936 5934 5932 5931 5929 5927 5925 5923 5921 5919 5917 5916 5914 5913 5912 5911 5910 5909 5909 5908 5907 5907 5906 5906 5905 5905 5904 5904 5903 5902 5902 5902 5901 5901 5900 5899 5898 5898 5897 5897 5897
5941 5942 5941 5941 5941 5941 5942 5940 5939 5937 5935 5934 5932 5930 5928 5926 5924 5922 5920 5919 5917 5916 5914 5913 5912 5911 5910 5910 5909 5908 5907 5907 5906 5905 5905 5904 5903 5903 5902 5901 5901 5900 5899 5899 5898 5897 5896 5896 5895
5942 5943 5942 5942 5942 5943 5943 5942 5940 5939 5938 5936 5935 5933 5931 5929 5927 5925 5923 5921 5920 5918 5917 5915 5914 5913 5912 5911 5910 5909 5908 5908 5907 5906 5905 5904 5904 5903 5902 5901 5900 5899 5899 5898 5897 5896 5896 5895 5895
5942 5943 5943 5944 5944 5944 5944 5943 5942 5941 5939 5938 5937 5935 5934 5932 5930 5928 5926 5924 5922 5921 5919 5918 5916 5915 5914 5913 5911 5910 5909 5908 5908 5907 5906 5905 5904 5903 5901 5901 5900 5899 5898 5897 5896 5896 5894 5894 5893
5941 5943 5943 5943 5943 5945 5944 5944 5943 5942 5941 5939 5938 5937 5936 5934 5932 5931 5929 5927 5925 5923 5922 5920 5919 5917 5916 5914 5913 5911 5910 5909 5908 5907 5905 5904 5904 5903 5901 5900 5899 5898 5897 5896 5895 5894 5893 5892 5892
5941 5942 5943 5944 5943 5944 5944 5944 5943 5942 5942 5941 5940 5938 5938 5936 5934 5932 5931 5929 5927 5926 5924 5922 5921 5919 5917 5916 5914 5913 5911 5910 5909 5907 5906 5905 5903 5902 5900 5899 5898 5897 5896 5895 5894 5893 5892 5891 5890
5939 5941 5942 5942 5942 5942 5944 5943 5943 5942 5941 5941 5940 5939 5939 5938 5936 5934 5932 5931 5929 5927 5926 5924 5922 5921 5919 5917 5916 5914 5913 5911 5909 5908 5906 5904 5903 5901 5900 5898 5897 5896 5894 5893 5892 5891 5890 5889 5888
5937 5939 5940 5941 5941 5942 5943 5942 5943 5941 5941 5941 5941 5940 5939 5938 5937 5936 5934 5932 5931 5929 5927 5926 5924 5922 5920 5919 5917 5915 5913 5912 5910 5908 5906 5904 5902 5900 5899 5897 5895 5894 5893 5891 5890 5889 5888 5887 5886
5935 5937 5938 5939 5940 5940 5941 5941 5941 5941 5941 5941 5941 5940 5939 5938 5938 5936 5935 5933 5932 5930 5928 5927 5925 5923 5921 5920 5918 5916 5914 5912 5910 5908 5906 5904 5902 5899 5898 5896 5894 5893 5891 5890 5888 5887 5886 5884 5883
5932 5934 5936 5937 5938 5939 5939 5939 5941 5940 5940 5940 5940 5940 5939 5938 5938 5937 5936 5934 5933 5931 5929 5928 5926 5924 5922 5920 5918 5916 5914 5912 5910 5908 5906 5903 5901 5899 5897 5895 5893 5891 5890 5888 5886 5884 5883 5881 5880
5929 5931 5933 5935 5936 5937 5937 5938 5939 5939 5939 5939 5939 5939 5939 5938 5938 5937 5936 5935 5933 5931 5930 5928 5926 5924 5922 5920 5918 5916 5914 5911 5909 5907 5905 5903 5901 5898 5896 5894 5892 5890 5888 5886 5884 5882 5880 5879 5877
5925 5927 5930 5932 5933 5934 5935 5936 5936 5936 5937 5937 5938 5938 5938 5937 5937 5936 5936 5935 5933 5931 5930 5928 5926 5924 5922 5920 5918 5915 5913 5911 5909 5907 5905 5902 5900 5898 5895 5893 5891 5889 5887 5885 5882 5880 5878 5876 5874
5921 5924 5926 5927 5929 5931 5932 5933 5935 5934 5935 5935 5936 5936 5936 5936 5936 5936 5935 5934 5932 5931 5929 5928 5926 5924 5922 5919 5917 5915 5912 5910 5908 5906 5904 5902 5899 5897 5894 5892 5890 5888 5886 5883 5881 5878 5876 5874 5872
5917 5919 5921 5924 5926 5927 5928 5932 5932 5932 5932 5933 5934 5934 5934 5934 5935 5934 5934 5933 5931 5930 5929 5927 5925 5923 5921 5919 5917 5914 5911 5909 5907 5905 5903 5900 5898 5895 5893 5891 5889 5886 5884 5882 5879 5876 5874 5872 5870
5912 5915 5917 5920 5922 5923 5925 5930 5929 5929 5930 5930 5931 5932 5932 5933 5932 5932 5932 5931 5930 5929 5927 5926 5924 5922 5920 5918 5915 5913 5910 5908 5905 5903 5901 5899 5897 5894 5892 5889 5887 5885 5882 5880 5877 5875 5872 5870 5867